Hourly Weather Roundup
Issued by NWS Central Illinois

Home | Current Version | Previous Version | Text Only | Print | Product List | Glossary On
Versions: 1 2 3 4 5 6 7 8 9 10 11 12 13 14 15 16 17 18 19 20 21 22 23 24 25 26 27 28 29 30 31 32 33 34 35 36 37 38 39 40 41 42 43 44 45 46 47 48 49 50
000
NZUS43 KILX 250310
HWRILX

Area Weather Roundup
National Weather Service Lincoln IL
1000 PM CDT MON APR 24 2017

NOTE:  "FAIR" indicates few or no clouds below 12,000 feet, with
       no sigificant weather and/or obstructions to visibility.


CITY           SKY/WX    TMP DP  RH WIND       PRES   REMARKS
Bloomington    CLEAR     61  33  35 SE10      29.74S
Champaign      CLEAR     58  35  42 E8        29.74S
Danville       CLEAR     61  38  42 E5        29.72F
Decatur        CLEAR     56  36  47 S6        29.73S
Effingham      CLEAR     54  47  75 CALM      29.75R
Flora          CLEAR     55  47  73 CALM      29.73F
Galesburg      CLEAR     62  31  31 E6        29.68F
Jacksonville   CLEAR     59  33  37 SE6       29.70F
Lacon          CLOUDY    63  30  29 SE8       29.72R
Lawrenceville  CLEAR     63  46  54 CALM      29.74S
Litchfield     CLEAR     59  35  40 SE7       29.72F
$$


CITY           SKY/WX    TMP DP  RH WIND       PRES   REMARKS
Lincoln        CLEAR     58  34  39 CALM      29.72R
Macomb         CLEAR     59  28  30 S7        29.71S
Mattoon        CLEAR     59  47  64 CALM      29.73S
Mt Carmel AP   CLEAR     56  44  62 CALM      29.74S
Olney-Noble AP CLEAR     55  44  66 CALM      29.73F
Paris AP       CLEAR     61  43  51 E6        29.75F
Peoria         CLEAR     66  27  23 SE7       29.72R
Pontiac        CLEAR     60  37  42 E9        29.74S
Rantoul        CLEAR     62  39  44 E8        29.74S
Robinson       CLEAR     54  46  74 CALM      29.75S
Springfield    CLEAR     62  31  31 S7        29.72R
Taylorville    CLEAR     60  33  37 SE7       29.72F
$$

...REGIONAL REPORTS...


CITY           SKY/WX    TMP DP  RH WIND       PRES   REMARKS
Chicago O`Hare PTCLDY    54  35  48 CALM      29.77S
Kankakee       CLEAR     60  37  42 E10       29.76S
Moline         PTCLDY    62  32  32 SE9       29.67S
Mount Sterling CLEAR     60  32  35 S6        29.69R
Mount Vernon   CLEAR     51  46  83 CALM      29.74S
Pittsfield     CLEAR     61  36  39 SE8       29.70S
Quincy         CLEAR     59  33  37 SE6       29.68R
Rockford       CLOUDY    62  31  31 SE10      29.75F
$$


CITY           SKY/WX    TMP DP  RH WIND       PRES   REMARKS
Burlington     PTCLDY    59  33  37 S7        29.67R
Cedar Rapids   CLEAR     64  31  28 S7        29.65R
Des Moines     MOCLDY    66  32  28 SE10      29.60S
Kirksville     CLEAR     56  32  40 SE10      29.65S
Ottumwa        CLEAR     61  32  33 SE8       29.64R
St Louis       PTCLDY    65  38  36 SE7       29.72R
$$


CITY           SKY/WX    TMP DP  RH WIND       PRES   REMARKS
Terre Haute    PTCLDY    58  46  64 CALM      29.75S
Evansville     CLEAR     61  51  70 CALM      29.75R
Indianapolis   PTCLDY    65  51  60 SE14      29.77R
Lafayette      CLEAR     60  41  49 E10       29.76F
Madison        CLOUDY    62  31  31 SE16      29.72F
Milwaukee      MOCLDY    51  32  48 CALM      29.79S
$$





USA.gov is the U.S. government's official web portal to all federal, state and local government web resources and services.